EHI
0 0 0 0 0 0 0 0 0 0 0 0 0 0 0 0 0 0 0 0 0 0 0 0 0 0 0 0 0 0 0 0 0 0 0 0 0 0 0 0 0 0 0 0 0 0 0 0 0
0 0 0 0 0 0 0 0 0 0 0 0 0 0 0 0 0 0 0 0 0 0 0 0 0 0 0 0 0 0 0 0 0 0 0 0 0 0 0 0 0 0 0 0 0 0 0 0 0
0 0 0 0 0 0 0 0 0 0 0 0 0 0 0 0 0 0 0 0 0 0 0 0 0 0 0 0 0 0 0 0 0 0 0 0 0 0 0 0 0 0 0 0 0 0 0 0 0
0 0 0 0 0 0 0 0 0 0 0 0 0 0 0 0 0 0 0 0 0 0 0 0 0 0 0 0 0 0 0 0 0 0 0 0 0 0 0 0 0 0 0 0 0 0 0 0 0
0 0 0 0 0 0 0 0 0 0 0 0 0 0 0 0 0 0 0 0 0 0 0 0 0 0 0 0 0 0 0 0 0 0 0 0 0 0 0 0 0 0 0 0 0 0 0 0 0
0 0 0 0 0 0 0 0 0 0 0 0 0 0 0 0 0 0 0 0 0 0 0 0 0 0 0 0 0 0 0 0 0 0 0 0 0 0 0 0 0 0 0 0 0 0 0 0 0
0 0 0 0 0 0 0 0 0 0 0 0 0 0 0 0 0 0 0 0 0 0 0 0 0 0 0 0 0 0 0 0 0 0 0 0 0 0 0 0 0 0 0 0 0 0 0 0 0
0 0 0 0 0 0 0 0 0 0 0 0 0 0 0 0 0 0 0 0 0 0 0 0 0 0 0 0 0 0 0 0 0 0 0 0 0 0 0 0 0 0 0 0 0 0 0 0 0
0 0 0 0 0 0 0 0 0 0 0 0 0 0 0 0 0 0 0 0 0 0 0 0 0 0 0 0 0 0 0 0 0 0 0 0 0 0 0 0 0 0 0 0 0 0 0 0 0
0 0 0 0 0 0 0 0 0 0 0 0 0 0 0 0 0 0 0 0 0 0 0 0 0 0 0 0 0 0 0 0 0 0 0 0 0 0 0 0 0 0 0 0 0 0 0 0 0
0 0 0 0 0 0 0 0 0 0 0 0 0 0 0 0 0 0 0 0 0 0 0 0 0 0 0 0 0 0 0 0 0 0 0 0 0 0 0 0 0 0 0 0 0 0 0 0 0
0 0 0 0 0 0 0 0 0 0 0 0 0 0 0 0 0 0 0 0 0 0 0 0 0 0 0 0 0 0 0 0 0 0 0 0 0 0 0 0 0 0 0 0 0 0 0 0 0
0 0 0 0 0 0 0 0 0 0 0 0 0 0 0 0 0 0 0 0 0 0 0 0 0 0 0 0 0 0 0 0 0 0 0 0 0 0 0 0 0 0 0 0 0 0 0 0 0
0 0 0 0 0 0 0 0 0 0 0 0 0 0 0 0 0 0 0 0 0 0 0 0 0 0 0 0 0 0 0 0 0 0 0 0 0 0 0 0 0 0 0 0 0 0 0 0 0
0 0 0 0 0 0 0 0 0 0 0 0 0 0 0 0 0 0 0 0 0 0 0 0 0 0 0 0 0 0 0 0 0 0 0 0 0 0 0 0 0 0 0 0 0 0 0 0 0
0 0 0 0 0 0 0 0 0 0 0 0 0 0 0 0 0 0 0 0 0 0 0 0 0 0 0 0 0 0 0 0 0 0 0 0 0 0 0 0 0 0 0 0 0 0 0 0 0
0 0 0 0 0 0 0 0 0 0 0 0 0 0 0 0 0 0 0 0 0 0 0 0 0 0 0 0 0 0 0 0 0 0 0 0 0 0 0 0 0 0 0 0 0 0 0 0 0
0 0 0 0 0 0 0 0 0 0 0 0 0 0 0 0 0 0 0 0 0 0 0 0 0 0 0 0 0 0 0 0 0 0 0 0 0 0 0 0 0 0 0 0 0 0 0 0 0
0 0 0 0 0 0 0 0 0 0 0 0 0 0 0 0 0 0 0 0 0 0 0 0 0 0 0 0 0 0 0 0 0 0 0 0 0 0 0 0 0 0 0 0 0 0 0 0 0
0 0 0 0 0 0 0 0 0 0 0 0 0 0 0 0 0 0 0 0 0 0 0 0 0 0 0 0 0 0 0 0 0 0 0 0 0 0 0 0 0 0 0 0 0 0 0 0 0
0 0 0 0 0 0 0 0 0 0 0 0 0 0 0 0 0 0 0 0 0 0 0 0 0 0 0 0 0 0 0 0 0 0 0 0 0 0 0 0 0 0 0 0 0 0 0 0 0
0 0 0 0 0 0 0 0 0 0 0 0 0 0 0 0 0 0 0 0 0 0 0 0 0 0 0 0 0 0 0 0 0 0 0 0 0 0 0 0 0 0 0 0 0 0 0 0 0
0 0 0 0 0 0 0 0 0 0 0 0 0 0 0 0 0 0 0 0 0 0 0 0 0 0 0 0 0 0 0 0 0 0 0 0 0 0 0 0 0 0 0 0 0 0 0 0 0
0 0 0 0 0 0 0 0 0 0 0 0 0 0 0 0 0 0 0 0 0 0 0 0 0 0 0 0 0 0 0 0 0 0 0 0 0 0 0 0 0 0 0 0 0 0 0 0 0
0 0 0 0 0 0 0 0 0 0 0 0 0 0 0 0 0 0 0 0 0 0 0 0 0 0 0 0 0 0 0 0 0 0 0 0 0 0 0 0 0 0 0 0 0 0 0 0 0
0 0 0 0 0 0 0 0 0 0 0 0 0 0 0 0 0 0 0 0 0 0 0 0 0 0 0 0 0 0 0 0 0 0 0 0 0 0 0 0 0 0 0 0 0 0 0 0 0
0 0 0 0 0 0 0 0 0 0 0 0 0 0 0 0 0 0 0 0 0 0 0 0 0 0 0 0 0 0 0 0 0 0 0 0 0 0 0 0 0 0 0 0 0 0 0 0 0
0 0 0 0 0 0 0 0 0 0 0 0 0 0 0 0 0 0 0 0 0 0 0 0 0 0 0 0 0 0 0 0 0 0 0 0 0 0 0 0 0 0 0 0 0 0 0 0 0
0 0 0 0 0 0 0 0 0 0 0 0 0 0 0 0 0 0 0 0 0 0 0 0 0 0 0 0 0 0 0 0 0 0 0 0 0 0 0 0 0 0 0 0 0 0 0 0 0
0 0 0 0 0 0 0 0 0 0 0 0 0 0 0 0 0 0 0 0 0 0 0 0 0 0 0 0 0 0 0 0 0 0 0 0 0 0 0 0 0 0 0 0 0 0 0 0 0
Wind_Speed
9 10 7 3 3 4 7 0 4 5 3 4 4 2 4 5 3 3 6 8 14 15 16 17 20 18 16 14 13 12 11 11 11 11 11 11 11 11 12 12 12 13 13 14 15 15 16 16 17
8 7 4 3 4 5 5 1 5 8 7 5 3 1 2 2 7 10 7 9 16 16 15 15 20 19 17 16 14 13 12 11 11 11 10 10 10 10 11 11 11 12 12 13 13 14 14 15 16
9 7 4 4 6 7 4 4 9 8 5 3 4 2 3 5 10 10 8 13 14 14 14 16 22 20 18 17 15 14 13 12 11 11 10 10 10 10 10 10 10 10 11 11 12 12 13 14 14
5 3 4 5 9 9 3 5 9 7 3 2 3 3 3 5 6 11 13 14 14 13 14 16 23 21 19 18 16 15 14 13 12 11 11 10 9 9 9 9 9 9 9 10 10 11 11 12 13
3 4 5 7 10 10 2 6 5 3 6 8 5 4 6 5 10 15 14 14 13 13 13 16 22 21 20 18 17 16 15 14 12 11 11 10 9 9 8 8 7 7 8 8 9 9 10 10 11
4 4 5 7 10 7 1 7 5 3 5 5 8 5 4 7 11 14 12 11 11 11 13 16 22 22 20 19 18 17 16 15 13 12 11 11 10 9 8 7 6 6 6 6 7 7 8 9 10
4 4 7 10 10 9 6 6 4 3 5 4 8 4 6 7 9 12 11 10 10 10 12 13 12 16 20 20 19 18 17 16 14 13 12 11 10 9 8 7 6 5 5 5 5 5 6 7 8
3 4 9 9 9 8 4 4 1 2 5 1 8 5 3 10 11 11 10 8 9 9 10 13 12 11 10 12 18 18 18 17 16 14 13 11 10 9 8 7 6 5 4 3 3 3 3 3 5
3 4 8 9 9 7 4 1 3 3 3 3 4 1 6 15 13 11 9 8 9 10 9 12 13 12 11 10 15 16 17 17 16 13 14 11 5 5 5 7 8 6 4 3 2 0 1 2 1
3 4 9 8 7 6 7 7 6 3 5 6 6 6 10 13 13 14 14 15 15 14 13 10 13 13 12 12 10 7 8 8 8 6 7 5 5 5 7 10 9 8 6 5 4 4 4 3 1
5 6 7 8 6 5 6 8 8 7 9 10 10 13 16 15 15 15 16 17 16 14 13 12 11 12 13 9 9 6 5 6 7 9 9 6 5 4 4 4 4 5 6 4 5 5 4 2 1
5 8 9 6 3 2 5 7 7 10 12 9 8 4 18 18 18 19 18 16 14 13 15 13 12 10 11 9 8 8 7 7 7 9 12 7 4 5 5 4 5 5 4 5 4 4 4 3 3
8 9 8 5 3 5 8 11 10 14 14 10 9 7 15 18 17 16 15 14 14 16 16 15 13 12 10 9 7 8 7 7 8 7 9 9 6 6 5 5 5 5 5 5 4 4 5 4 4
5 7 9 9 8 6 8 10 8 14 11 11 11 11 11 16 16 14 15 16 17 17 17 15 15 13 11 9 8 7 7 6 7 7 8 10 7 7 6 6 6 5 5 5 5 5 4 4 3
3 7 11 11 9 3 3 8 10 17 11 10 10 10 12 13 15 17 16 16 16 15 16 17 15 14 13 12 10 7 7 7 7 8 9 10 9 9 8 7 6 6 6 6 5 5 3 3 4
5 5 6 3 6 5 1 9 8 7 7 9 9 10 11 13 15 16 15 15 14 13 15 17 16 15 14 12 10 7 7 8 8 8 9 12 11 10 8 7 7 7 6 5 5 4 4 4 4
6 5 7 4 6 5 6 12 12 9 11 11 9 8 8 9 13 16 17 17 16 14 14 16 16 16 14 12 9 8 7 8 8 8 9 11 13 12 9 8 7 8 6 6 7 6 5 5 5
7 8 9 9 4 5 8 15 19 12 8 7 5 4 3 4 6 9 14 15 15 14 13 15 15 14 12 10 8 7 8 8 8 8 9 11 12 13 10 7 9 8 7 7 7 7 6 5 4
7 8 11 12 6 3 9 15 19 14 5 4 5 6 6 5 5 2 6 10 12 12 12 14 15 14 12 11 11 12 12 9 8 9 11 12 12 14 12 9 9 9 9 10 9 7 7 6 4
6 9 11 10 3 6 10 14 16 7 2 4 4 5 6 7 8 7 3 5 9 11 12 12 14 15 13 12 10 8 8 7 8 7 10 13 14 15 14 13 10 11 9 11 12 9 6 6 7
8 8 7 8 9 8 7 9 3 5 8 7 7 7 7 7 7 7 4 1 5 8 11 11 12 14 14 12 6 5 6 6 8 10 11 13 14 15 14 15 12 12 12 12 14 12 13 9 8
7 3 4 6 6 6 5 6 6 5 7 7 6 6 6 6 6 5 5 2 2 6 8 10 10 12 12 13 11 12 12 15 15 10 8 10 13 14 15 15 15 13 12 12 13 14 11 9 8
4 3 5 6 5 6 5 5 8 4 6 6 6 6 5 6 6 6 5 3 2 3 5 7 9 10 11 12 13 13 14 13 7 7 9 12 12 14 15 15 15 15 12 13 12 13 13 12 11
5 7 8 4 2 5 5 5 7 1 5 6 5 5 6 6 7 7 6 5 3 1 2 5 7 8 9 11 12 14 15 12 9 10 10 10 9 10 15 14 14 14 13 13 13 12 14 13 13
4 4 3 2 4 5 2 3 8 2 6 6 5 5 6 6 7 7 8 7 6 3 1 4 6 7 8 9 12 13 14 12 13 11 10 9 9 10 13 15 15 14 14 12 11 13 14 15 14
2 2 3 4 4 4 3 6 7 2 4 5 5 5 5 6 6 6 6 6 6 5 3 1 4 6 7 8 10 11 11 10 10 11 10 10 9 10 10 14 15 16 14 14 13 12 14 12 15
3 2 1 3 6 6 6 6 4 2 4 5 5 5 6 5 5 6 6 5 5 5 4 3 2 4 6 7 8 9 10 10 11 10 10 9 9 8 10 13 15 15 15 15 14 13 14 12 13
4 5 2 3 4 5 6 6 2 2 1 2 3 4 5 4 5 5 5 5 4 3 2 2 1 2 4 5 6 6 8 9 10 9 11 11 10 9 9 10 13 14 15 15 15 13 12 14 13
6 3 4 4 5 3 5 5 3 4 3 4 3 4 4 5 4 4 4 5 4 4 3 2 2 2 3 4 5 6 7 7 8 9 10 10 10 10 11 11 11 13 14 15 15 16 13 16 15
2 3 4 4 6 5 6 8 3 1 3 3 4 4 4 4 3 3 4 5 5 6 5 5 4 3 4 4 5 6 6 7 7 9 9 9 10 10 11 10 11 12 13 14 16 17 16 17 17
Wind_Direction
269 252 244 255 251 253 274 295 86 97 92 72 68 349 335 349 27 130 172 172 134 144 150 157 155 155 153 149 144 141 135 128 121 115 107 101 95 88 84 78 74 70 66 62 59 57 57 55 53
276 249 247 247 258 274 287 66 88 77 77 90 94 275 270 93 101 123 159 157 143 148 150 158 158 157 157 154 152 148 143 137 131 124 117 109 102 95 89 83 78 74 69 65 60 57 56 54 52
269 256 248 243 252 260 281 63 83 86 97 147 174 215 288 91 127 147 159 146 148 150 153 160 160 161 161 159 158 155 150 146 141 134 127 118 111 104 96 88 81 77 72 68 62 57 55 53 50
256 229 239 248 267 276 296 78 99 121 141 223 238 195 160 92 126 141 145 151 153 153 154 159 163 164 165 164 163 161 158 154 150 144 137 129 120 112 104 97 89 82 76 70 64 57 53 51 48
236 247 242 253 261 267 255 101 110 174 180 186 211 261 136 98 102 127 148 160 158 157 152 160 167 168 169 169 168 167 164 161 158 153 147 140 132 125 117 109 98 89 81 73 66 57 50 48 45
252 251 260 263 269 277 235 132 145 209 261 185 174 241 131 133 132 141 157 165 161 158 150 161 172 172 173 174 173 172 170 167 165 162 157 151 145 140 134 124 112 100 90 78 68 58 47 44 42
278 275 271 280 292 304 316 118 171 216 259 234 157 202 134 166 150 146 158 167 163 160 153 160 174 175 177 179 178 177 175 173 171 169 165 161 156 152 147 141 133 121 107 93 77 61 46 39 38
313 289 280 279 283 291 326 115 87 316 285 274 151 211 159 166 143 144 156 172 169 165 162 163 174 174 176 179 183 182 180 178 177 175 171 169 167 163 161 158 154 147 138 123 101 71 45 33 35
276 263 269 276 288 302 351 191 193 141 290 271 183 141 90 126 138 149 159 180 182 177 176 170 175 176 176 178 187 185 184 184 180 177 178 173 168 163 174 177 170 171 172 169 161 202 284 275 323
233 254 264 281 307 328 331 309 290 215 223 238 208 134 130 140 156 170 177 185 189 187 184 182 179 178 177 183 180 176 180 178 170 161 170 173 192 179 178 175 179 186 194 202 210 234 252 264 335
244 251 273 295 337 347 311 293 281 264 252 235 224 187 163 167 175 187 192 194 194 188 185 187 187 179 178 178 170 175 178 172 175 171 171 187 190 162 157 154 179 192 205 215 215 232 233 227 146
251 279 288 295 358 314 284 283 281 251 246 251 270 239 166 178 188 194 198 198 192 189 192 189 187 183 178 175 172 176 180 177 182 181 175 182 178 170 174 177 174 186 193 205 201 214 206 203 210
253 261 274 288 278 255 267 271 279 267 263 263 257 234 176 191 200 203 203 200 194 194 193 191 188 187 180 175 177 181 181 176 177 179 178 177 175 179 182 190 185 189 187 188 203 216 206 201 211
307 319 296 274 255 250 256 268 264 263 251 245 240 231 199 197 202 204 206 206 201 196 193 190 191 189 184 184 183 184 180 172 177 179 183 181 178 180 186 191 190 191 192 187 195 208 202 201 203
308 285 275 248 218 222 298 274 236 248 247 247 236 224 214 207 201 207 208 208 205 195 190 189 192 190 189 189 189 188 185 179 184 184 187 190 188 185 187 192 191 191 190 190 194 209 196 205 209
231 251 264 206 166 146 167 271 258 298 296 261 241 229 218 212 207 208 207 205 204 195 189 189 190 193 192 191 192 192 192 189 190 188 189 195 195 190 189 193 194 187 184 185 187 196 191 207 210
224 264 302 347 170 181 209 268 280 289 284 275 263 247 234 225 214 209 204 200 198 196 187 186 188 190 192 190 191 196 196 199 195 194 192 195 197 196 193 194 194 185 185 187 194 196 193 201 207
329 330 317 313 284 235 251 274 292 299 293 290 300 308 292 269 246 213 201 196 191 190 186 183 185 187 186 187 191 198 208 207 202 200 198 193 197 198 197 196 195 188 188 192 194 197 197 199 197
328 303 295 293 310 315 276 285 295 303 320 357 14 13 3 346 330 305 187 182 180 181 183 182 184 186 185 191 197 200 207 207 207 204 201 198 196 196 198 200 198 196 197 197 193 189 196 202 178
285 282 284 291 348 314 280 286 286 277 104 77 59 45 29 13 6 6 41 155 175 180 184 184 185 187 191 198 200 202 201 207 211 209 208 203 199 197 202 203 201 200 198 199 198 191 188 194 182
273 275 295 315 329 281 274 296 269 118 104 90 74 62 49 36 25 16 20 77 178 185 188 193 191 191 193 191 186 194 201 207 213 213 212 209 204 201 202 205 203 203 202 206 203 195 192 199 195
282 343 339 322 324 305 330 304 289 158 119 104 87 67 51 40 34 28 21 8 210 202 194 194 194 195 193 190 196 199 207 215 217 214 212 210 209 207 206 205 207 208 208 210 207 204 199 190 195
295 341 283 285 287 286 254 236 277 216 133 116 100 81 62 49 40 30 21 356 316 211 196 196 197 201 196 197 203 209 220 227 225 215 215 214 214 214 211 208 209 212 213 212 209 207 204 204 201
303 292 258 231 260 262 227 206 279 289 121 114 97 77 58 42 34 27 19 9 353 336 189 193 203 212 205 204 207 213 223 226 225 223 223 219 217 216 215 213 213 214 216 214 211 210 210 210 210
236 289 307 222 217 231 123 235 253 282 96 104 98 73 57 41 33 22 15 9 3 352 255 203 209 223 218 214 217 220 225 226 230 230 229 225 223 220 216 214 217 217 218 215 210 212 215 213 211
276 301 301 297 292 315 256 235 250 146 110 116 108 87 64 48 38 29 20 15 9 5 350 260 224 227 225 223 225 225 225 225 232 232 230 231 230 226 213 212 217 218 216 217 215 218 219 216 218
272 222 43 322 286 269 249 243 244 160 126 115 99 77 65 55 42 32 21 18 15 12 3 349 295 254 235 229 230 229 227 227 231 230 231 236 237 228 215 211 214 216 216 217 216 222 221 219 220
283 325 312 245 266 277 274 266 258 131 124 88 64 67 74 60 45 31 15 8 9 7 354 358 332 290 265 245 236 235 232 231 231 230 233 235 236 231 224 217 214 215 216 216 217 223 220 219 220
176 205 226 255 269 272 285 274 355 349 38 49 35 69 78 66 50 30 6 356 358 354 350 338 301 278 272 266 258 251 245 239 237 236 237 236 235 231 230 226 221 218 217 215 218 222 217 221 222
157 229 236 246 260 257 274 273 307 66 72 40 42 66 79 76 54 28 5 349 348 343 337 331 315 293 267 254 257 260 257 250 244 244 244 239 238 234 232 229 228 225 220 216 218 222 220 220 221